Location: Unspecified
(0.0000°N, 0.0000°E)
Time: 21:03:33
(UTC+00:00)

Explorer 11/Cluster Stage 4 - Visible Passes

Search period start: 05 July 2015 00:00
Search period end: 15 July 2015 00:00
Orbit: 468 x 1272 km, 28.8° (Epoch: 05 July)

Date Brightness Start Highest point End Pass type
(mag) Time Alt. Az. Time Alt. Az. Time Alt. Az.
05 Jul 8.5 03:41:57 22° NNW 03:41:57 22° NNW 03:45:16 10° NNE visible
06 Jul 8.8 03:33:36 19° NNW 03:33:36 19° NNW 03:36:24 10° NNE visible
07 Jul 9.0 03:25:12 16° N 03:25:12 16° N 03:27:26 10° N visible
08 Jul 9.3 03:16:45 13° N 03:16:45 13° N 03:18:21 10° N visible
09 Jul 9.4 03:08:16 11° N 03:08:16 11° N 03:09:08 10° N visible
11 Jul 9.1 19:19:41 10° SSE 19:20:02 10° SSE 19:20:02 10° SSE visible
12 Jul 8.9 19:09:42 10° S 19:12:00 12° SSE 19:12:18 12° SSE visible
13 Jul 8.7 19:00:20 10° S 19:03:25 14° SSE 19:04:43 13° SE visible
13 Jul 9.3 20:46:11 10° SW 20:47:02 14° SW 20:47:02 14° SW visible
14 Jul 8.6 18:51:09 10° S 18:54:48 16° SSE 18:57:17 14° SE visible
14 Jul 8.8 20:37:23 10° SW 20:39:37 22° SW 20:39:37 22° SW visible
